,,Stat5,,Stat1,,Stat2,,Stat3,,Stat4,,Wind1,,Wind1,
time,status,PA1M_AVG,status,PR1M_SUM,status,RH1M_AVG,status,SR1M_AVG,status,TA1M_AVG,status,W1dAve1m,status,W1sAve1m,
2003-08-14, 00:00:00,VALID,918.456,VALID,0,VALID,100,VALID,0,VALID,19.4585,VALID,172,VALID,0.358953,
2003-08-14, 00:01:00,VALID,918.452,VALID,0,VALID,100,VALID,0,VALID,19.4655,VALID,172,VALID,0.292535,
2003-08-14, 00:02:00,VALID,918.448,VALID,0,VALID,100,VALID,0,VALID,19.4555,VALID,172,VALID,0.204814,
2003-08-14, 00:03:00,VALID,918.452,VALID,0,VALID,100,VALID,0,VALID,19.4652,VALID,172,VALID,0,
2003-08-14, 00:04:00,VALID,918.451,VALID,0,VALID,100,VALID,0.0169808,VALID,19.4749,VALID,172,VALID,0,
2003-08-14, 00:05:00,VALID,918.46,VALID,0,VALID,100,VALID,0,VALID,19.4844,VALID,172,VALID,0.000892857,
2003-08-14, 00:06:00,VALID,918.46,VALID,0,VALID,100,VALID,0.0169808,VALID,19.5037,VALID,172,VALID,0,
2003-08-14, 00:07:00,VALID,918.449,VALID,0,VALID,100,VALID,0,VALID,19.5169,VALID,172,VALID,0,
2003-08-14, 00:08:00,VALID,918.453,VALID,0,VALID,100,VALID,0.0169808,VALID,19.5234,VALID,172,VALID,0,
2003-08-14, 00:09:00,VALID,918.437,VALID,0,VALID,100,VALID,0.0169808,VALID,19.5234,VALID,172,VALID,0.00870536,
2003-08-14, 00:10:00,VALID,918.433,VALID,0,VALID,100,VALID,0,VALID,19.5236,VALID,172,VALID,0.206931,
2003-08-14, 00:11:00,VALID,918.427,VALID,0,VALID,100,VALID,0,VALID,19.501,VALID,172,VALID,0.0701014,
2003-08-14, 00:12:00,VALID,918.424,VALID,0,VALID,100,VALID,0,VALID,19.4779,VALID,172,VALID,0,
2003-08-14, 00:13:00,VALID,918.416,VALID,0,VALID,100,VALID,0,VALID,19.4913,VALID,172,VALID,0,
2003-08-14, 00:14:00,VALID,918.424,VALID,0,VALID,100,VALID,0,VALID,19.5008,VALID,186,VALID,0.184005,
2003-08-14, 00:15:00,VALID,918.42,VALID,0,VALID,100,VALID,0,VALID,19.4908,VALID,234,VALID,0.427365,
2003-08-14, 00:16:00,VALID,918.424,VALID,0,VALID,100,VALID,0,VALID,19.4849,VALID,243,VALID,0.301562,
2003-08-14, 00:17:00,VALID,918.418,VALID,0,VALID,100,VALID,0,VALID,19.4948,VALID,243,VALID,0.00717905,
2003-08-14, 00:18:00,VALID,918.43,VALID,0,VALID,100,VALID,-0.0169808,VALID,19.501,VALID,243,VALID,0,
2003-08-14, 00:19:00,VALID,918.424,VALID,0,VALID,100,VALID,0.0169808,VALID,19.5204,VALID,243,VALID,0,
2003-08-14, 00:20:00,VALID,918.42,VALID,0,VALID,100,VALID,0,VALID,19.5298,VALID,243,VALID,0,
2003-08-14, 00:21:00,VALID,918.418,VALID,0,VALID,100,VALID,0,VALID,19.533,VALID,243,VALID,0,
2003-08-14, 00:22:00,VALID,918.4,VALID,0,VALID,100,VALID,0,VALID,19.5395,VALID,243,VALID,0,
2003-08-14, 00:23:00,VALID,918.402,VALID,0,VALID,100,VALID,0,VALID,19.546,VALID,243,VALID,0,
2003-08-14, 00:24:00,VALID,918.407,VALID,0,VALID,100,VALID,0,VALID,19.543,VALID,243,VALID,0.0208333,
2003-08-14, 00:25:00,VALID,918.42,VALID,0,VALID,100,VALID,0,VALID,19.5199,VALID,243,VALID,0.0584821,
2003-08-14, 00:26:00,VALID,918.419,VALID,0,VALID,100,VALID,-0.0339617,VALID,19.5137,VALID,243,VALID,0,
2003-08-14, 00:27:00,VALID,918.418,VALID,0,VALID,100,VALID,0,VALID,19.5201,VALID,243,VALID,0,
2003-08-14, 00:28:00,VALID,918.424,VALID,0,VALID,100,VALID,0,VALID,19.5104,VALID,243,VALID,0,
2003-08-14, 00:29:00,VALID,918.42,VALID,0,VALID,100,VALID,0,VALID,19.4978,VALID,243,VALID,0,
2003-08-14, 00:30:00,VALID,918.415,VALID,0,VALID,100,VALID,0.0169808,VALID,19.4911,VALID,243,VALID,0,
2003-08-14, 00:31:00,VALID,918.405,VALID,0,VALID,100,VALID,0,VALID,19.4811,VALID,243,VALID,0,
2003-08-14, 00:32:00,VALID,918.421,VALID,0,VALID,100,VALID,0.0169808,VALID,19.4744,VALID,243,VALID,0,
2003-08-14, 00:33:00,VALID,918.407,VALID,0,VALID,100,VALID,0,VALID,19.4941,VALID,243,VALID,0,
2003-08-14, 00:34:00,VALID,918.407,VALID,0,VALID,100,VALID,0,VALID,19.5261,VALID,243,VALID,0,
2003-08-14, 00:35:00,VALID,918.405,VALID,0,VALID,100,VALID,0.0169808,VALID,19.546,VALID,251,VALID,0.0368304,
2003-08-14, 00:36:00,VALID,918.392,VALID,0,VALID,100,VALID,0.0169808,VALID,19.5686,VALID,290,VALID,0.209535,
2003-08-14, 00:37:00,VALID,918.373,VALID,0,VALID,100,VALID,-0.0169808,VALID,19.5822,VALID,290,VALID,0.16913,
2003-08-14, 00:38:00,VALID,918.356,VALID,0,VALID,100,VALID,0,VALID,19.5755,VALID,290,VALID,0.0657552,
2003-08-14, 00:39:00,VALID,918.328,VALID,0,VALID,100,VALID,0,VALID,19.5524,VALID,290,VALID,0,
2003-08-14, 00:40:00,VALID,918.303,VALID,0,VALID,100,VALID,-0.0339617,VALID,19.5465,VALID,290,VALID,0,
2003-08-14, 00:41:00,VALID,918.292,VALID,0,VALID,100,VALID,-0.0849042,VALID,19.5638,VALID,290,VALID,0,
2003-08-14, 00:42:00,VALID,918.278,VALID,0,VALID,100,VALID,-0.0679233,VALID,19.5502,VALID,290,VALID,0,
2003-08-14, 00:43:00,VALID,918.277,VALID,0,VALID,100,VALID,-0.0679233,VALID,19.5077,VALID,290,VALID,0,
2003-08-14, 00:44:00,VALID,918.272,VALID,0,VALID,100,VALID,-0.0339617,VALID,19.5052,VALID,290,VALID,0,
2003-08-14, 00:45:00,VALID,918.265,VALID,0,VALID,100,VALID,-0.0679233,VALID,19.5055,VALID,290,VALID,0,
2003-08-14, 00:46:00,VALID,918.266,VALID,0,VALID,100,VALID,-0.0679233,VALID,19.4729,VALID,290,VALID,0,
2003-08-14, 00:47:00,VALID,918.254,VALID,0,VALID,100,VALID,-0.0679233,VALID,19.4565,VALID,290,VALID,0,
2003-08-14, 00:48:00,VALID,918.238,VALID,0,VALID,100,VALID,-0.0679233,VALID,19.4699,VALID,290,VALID,0,
2003-08-14, 00:49:00,VALID,918.22,VALID,0,VALID,100,VALID,-0.0509425,VALID,19.4891,VALID,290,VALID,0,
2003-08-14, 00:50:00,VALID,918.198,VALID,0,VALID,100,VALID,-0.0339617,VALID,19.5087,VALID,290,VALID,0,
2003-08-14, 00:51:00,VALID,918.185,VALID,0,VALID,100,VALID,-0.0509425,VALID,19.5082,VALID,290,VALID,0,
2003-08-14, 00:52:00,VALID,918.173,VALID,0,VALID,100,VALID,-0.0509425,VALID,19.502,VALID,290,VALID,0,
2003-08-14, 00:53:00,VALID,918.151,VALID,0,VALID,100,VALID,-0.0169808,VALID,19.499,VALID,290,VALID,0,
2003-08-14, 00:54:00,VALID,918.144,VALID,0,VALID,100,VALID,-0.0169808,VALID,19.4923,VALID,290,VALID,0,
2003-08-14, 00:55:00,VALID,918.125,VALID,0,VALID,100,VALID,-0.0339617,VALID,19.4694,VALID,290,VALID,0,
2003-08-14, 00:56:00,VALID,918.094,VALID,0,VALID,100,VALID,-0.0509425,VALID,19.4665,VALID,290,VALID,0,
2003-08-14, 00:57:00,VALID,918.072,VALID,0,VALID,100,VALID,-0.0169808,VALID,19.4468,VALID,290,VALID,0,
2003-08-14, 00:58:00,VALID,918.042,VALID,0,VALID,100,VALID,-0.0339617,VALID,19.4501,VALID,290,VALID,0,
2003-08-14, 00:59:00,VALID,918.009,VALID,0,VALID,100,VALID,-0.0169808,VALID,19.4439,VALID,290,VALID,0,
2003-08-14, 01:00:00,VALID,917.98,VALID,0,VALID,100,VALID,-0.0509425,VALID,19.4342,VALID,290,VALID,0,
2003-08-14, 01:01:00,VALID,917.957,VALID,0,VALID,100,VALID,-0.0169808,VALID,19.4434,VALID,290,VALID,0,
2003-08-14, 01:02:00,VALID,917.929,VALID,0,VALID,100,VALID,-0.0169808,VALID,19.4439,VALID,290,VALID,0,
2003-08-14, 01:03:00,VALID,917.916,VALID,0,VALID,100,VALID,-0.0509425,VALID,19.4436,VALID,290,VALID,0,
2003-08-14, 01:04:00,VALID,917.897,VALID,0,VALID,100,VALID,-0.0509425,VALID,19.4431,VALID,290,VALID,0,
2003-08-14, 01:05:00,VALID,917.885,VALID,0,VALID,100,VALID,-0.0509425,VALID,19.4761,VALID,290,VALID,0,
2003-08-14, 01:06:00,VALID,917.867,VALID,0,VALID,100,VALID,-0.0339617,VALID,19.499,VALID,290,VALID,0,
2003-08-14, 01:07:00,VALID,917.868,VALID,0,VALID,100,VALID,-0.0679233,VALID,19.5315,VALID,290,VALID,0,
2003-08-14, 01:08:00,VALID,917.849,VALID,0,VALID,100,VALID,-0.0509425,VALID,19.5532,VALID,290,VALID,0,
2003-08-14, 01:09:00,VALID,917.837,VALID,0,VALID,100,VALID,-0.0339617,VALID,19.5725,VALID,290,VALID,0,
2003-08-14, 01:10:00,VALID,917.831,VALID,0,VALID,100,VALID,-0.0339617,VALID,19.5693,VALID,290,VALID,0,
2003-08-14, 01:11:00,VALID,917.798,VALID,0,VALID,100,VALID,-0.0849042,VALID,19.5894,VALID,290,VALID,0,
2003-08-14, 01:12:00,VALID,917.786,VALID,0,VALID,100,VALID,-0.0509425,VALID,19.5924,VALID,290,VALID,0,
2003-08-14, 01:13:00,VALID,917.769,VALID,0,VALID,100,VALID,-0.0169808,VALID,19.5984,VALID,290,VALID,0,
2003-08-14, 01:14:00,VALID,917.737,VALID,0,VALID,100,VALID,-0.0509425,VALID,19.5693,VALID,290,VALID,0,
2003-08-14, 01:15:00,VALID,917.726,VALID,0,VALID,100,VALID,-0.0339617,VALID,19.5574,VALID,290,VALID,0,
2003-08-14, 01:16:00,VALID,917.719,VALID,0,VALID,100,VALID,-0.0509425,VALID,19.5442,VALID,290,VALID,0,
2003-08-14, 01:17:00,VALID,917.712,VALID,0,VALID,100,VALID,-0.0679233,VALID,19.5308,VALID,290,VALID,0,
2003-08-14, 01:18:00,VALID,917.699,VALID,0,VALID,100,VALID,-0.0679233,VALID,19.5534,VALID,290,VALID,0,
2003-08-14, 01:19:00,VALID,917.687,VALID,0,VALID,100,VALID,-0.0509425,VALID,19.5534,VALID,290,VALID,0,
2003-08-14, 01:20:00,VALID,917.671,VALID,0,VALID,100,VALID,-0.101885,VALID,19.5574,VALID,290,VALID,0,
2003-08-14, 01:21:00,VALID,917.657,VALID,0,VALID,100,VALID,-0.0679233,VALID,19.5601,VALID,290,VALID,0,
2003-08-14, 01:22:00,VALID,917.646,VALID,0,VALID,100,VALID,-0.0679233,VALID,19.5859,VALID,290,VALID,0,
2003-08-14, 01:23:00,VALID,917.62,VALID,0,VALID,100,VALID,-0.0679233,VALID,19.5539,VALID,290,VALID,0,
2003-08-14, 01:24:00,VALID,917.601,VALID,0,VALID,100,VALID,-0.0679233,VALID,19.5405,VALID,290,VALID,0,
2003-08-14, 01:25:00,VALID,917.581,VALID,0,VALID,100,VALID,-0.0339617,VALID,19.5666,VALID,290,VALID,0,
2003-08-14, 01:26:00,VALID,917.57,VALID,0,VALID,100,VALID,-0.0679233,VALID,19.5698,VALID,290,VALID,0,
2003-08-14, 01:27:00,VALID,917.545,VALID,0,VALID,100,VALID,-0.0169808,VALID,19.5792,VALID,290,VALID,0,
2003-08-14, 01:28:00,VALID,917.527,VALID,0,VALID,100,VALID,-0.0339617,VALID,19.6021,VALID,290,VALID,0,
2003-08-14, 01:29:00,VALID,917.5,VALID,0,VALID,100,VALID,-0.0679233,VALID,19.5859,VALID,290,VALID,0,
2003-08-14, 01:30:00,VALID,917.478,VALID,0,VALID,100,VALID,-0.0509425,VALID,19.576,VALID,290,VALID,0,
2003-08-14, 01:31:00,VALID,917.469,VALID,0,VALID,100,VALID,-0.0849042,VALID,19.5569,VALID,290,VALID,0,
2003-08-14, 01:32:00,VALID,917.455,VALID,0,VALID,100,VALID,-0.0849042,VALID,19.5532,VALID,290,VALID,0,
2003-08-14, 01:33:00,VALID,917.455,VALID,0,VALID,100,VALID,-0.0849042,VALID,19.5571,VALID,290,VALID,0,
2003-08-14, 01:34:00,VALID,917.461,VALID,0,VALID,100,VALID,-0.0509425,VALID,19.541,VALID,290,VALID,0,
2003-08-14, 01:35:00,VALID,917.459,VALID,0,VALID,100,VALID,0,VALID,19.5601,VALID,290,VALID,0,
2003-08-14, 01:36:00,VALID,917.463,VALID,0,VALID,100,VALID,-0.0679233,VALID,19.5604,VALID,290,VALID,0,
2003-08-14, 01:37:00,VALID,917.468,VALID,0,VALID,100,VALID,-0.0509425,VALID,19.573,VALID,290,VALID,0,
2003-08-14, 01:38:00,VALID,917.473,VALID,0,VALID,100,VALID,-0.0679233,VALID,19.5797,VALID,290,VALID,0,
2003-08-14, 01:39:00,VALID,917.481,VALID,0,VALID,100,VALID,-0.0679233,VALID,19.5569,VALID,290,VALID,0,
2003-08-14, 01:40:00,VALID,917.48,VALID,0,VALID,100,VALID,-0.0679233,VALID,19.5631,VALID,290,VALID,0,
2003-08-14, 01:41:00,VALID,917.473,VALID,0,VALID,100,VALID,-0.0679233,VALID,19.5601,VALID,290,VALID,0,
2003-08-14, 01:42:00,VALID,917.478,VALID,0,VALID,100,VALID,-0.0509425,VALID,19.5728,VALID,290,VALID,0,
2003-08-14, 01:43:00,VALID,917.474,VALID,0,VALID,100,VALID,-0.0509425,VALID,19.5949,VALID,291,VALID,0,
2003-08-14, 01:44:00,VALID,917.464,VALID,0,VALID,100,VALID,-0.0679233,VALID,19.6014,VALID,292,VALID,0,
2003-08-14, 01:45:00,VALID,917.465,VALID,0,VALID,100,VALID,-0.0339617,VALID,19.5984,VALID,292,VALID,0,
2003-08-14, 01:46:00,VALID,917.458,VALID,0,VALID,100,VALID,-0.0679233,VALID,19.582,VALID,4,VALID,0,
2003-08-14, 01:47:00,VALID,917.464,VALID,0,VALID,100,VALID,-0.0679233,VALID,19.5596,VALID,87,VALID,0,
2003-08-14, 01:48:00,VALID,917.464,VALID,0,VALID,100,VALID,-0.0849042,VALID,19.5472,VALID,90,VALID,0,
2003-08-14, 01:49:00,VALID,917.469,VALID,0,VALID,100,VALID,-0.0679233,VALID,19.5308,VALID,106,VALID,0,
2003-08-14, 01:50:00,VALID,917.479,VALID,0,VALID,100,VALID,-0.0339617,VALID,19.537,VALID,110,VALID,0,
2003-08-14, 01:51:00,VALID,917.478,VALID,0,VALID,100,VALID,-0.0509425,VALID,19.5303,VALID,114,VALID,0,
2003-08-14, 01:52:00,VALID,917.478,VALID,0,VALID,100,VALID,-0.101885,VALID,19.5373,VALID,117,VALID,0,
2003-08-14, 01:53:00,VALID,917.481,VALID,0,VALID,100,VALID,-0.0849042,VALID,19.5566,VALID,119,VALID,0,
2003-08-14, 01:54:00,VALID,917.48,VALID,0,VALID,100,VALID,-0.0169808,VALID,19.5656,VALID,119,VALID,0,
2003-08-14, 01:55:00,VALID,917.473,VALID,0,VALID,100,VALID,-0.0169808,VALID,19.5984,VALID,119,VALID,0,
2003-08-14, 01:56:00,VALID,917.47,VALID,0,VALID,100,VALID,-0.0169808,VALID,19.5859,VALID,114,VALID,0,
2003-08-14, 01:57:00,VALID,917.473,VALID,0,VALID,100,VALID,-0.0679233,VALID,19.5561,VALID,77,VALID,0.507161,
2003-08-14, 01:58:00,VALID,917.475,VALID,0,VALID,100,VALID,-0.0339617,VALID,19.54,VALID,74,VALID,0.553248,
2003-08-14, 01:59:00,VALID,917.458,VALID,0,VALID,100,VALID,-0.0339617,VALID,19.5402,VALID,66,VALID,0.520481,
2003-08-14, 02:00:00,VALID,917.462,VALID,0,VALID,100,VALID,-0.0509425,VALID,19.5532,VALID,47,VALID,0.396205,
2003-08-14, 02:01:00,VALID,917.46,VALID,0,VALID,100,VALID,-0.0339617,VALID,19.5534,VALID,47,VALID,0.30511,
2003-08-14, 02:02:00,VALID,917.449,VALID,0,VALID,100,VALID,-0.0509425,VALID,19.5633,VALID,47,VALID,0.0795272,
2003-08-14, 02:03:00,VALID,917.459,VALID,0,VALID,100,VALID,-0.0339617,VALID,19.5534,VALID,47,VALID,0.00440705,
2003-08-14, 02:04:00,VALID,917.471,VALID,0,VALID,100,VALID,-0.0509425,VALID,19.5469,VALID,47,VALID,0,
2003-08-14, 02:05:00,VALID,917.462,VALID,0,VALID,100,VALID,-0.0679233,VALID,19.5368,VALID,47,VALID,0,
2003-08-14, 02:06:00,VALID,917.457,VALID,0,VALID,100,VALID,-0.0679233,VALID,19.5564,VALID,47,VALID,0.0298713,
2003-08-14, 02:07:00,VALID,917.471,VALID,0,VALID,100,VALID,-0.0679233,VALID,19.5927,VALID,47,VALID,0.0351563,
2003-08-14, 02:08:00,VALID,917.461,VALID,0,VALID,100,VALID,-0.0679233,VALID,19.6021,VALID,47,VALID,0.000868056,
2003-08-14, 02:09:00,VALID,917.45,VALID,0,VALID,100,VALID,-0.101885,VALID,19.5763,VALID,47,VALID,0,
2003-08-14, 02:10:00,VALID,917.451,VALID,0,VALID,100,VALID,-0.101885,VALID,19.5733,VALID,47,VALID,0,
2003-08-14, 02:11:00,VALID,917.462,VALID,0,VALID,100,VALID,-0.0849042,VALID,19.5504,VALID,47,VALID,0,
2003-08-14, 02:12:00,VALID,917.42,VALID,0,VALID,100,VALID,-0.0679233,VALID,19.5405,VALID,47,VALID,0,
2003-08-14, 02:13:00,VALID,917.42,VALID,0,VALID,100,VALID,-0.0849042,VALID,19.5504,VALID,47,VALID,0,
2003-08-14, 02:14:00,VALID,917.401,VALID,0,VALID,100,VALID,-0.0849042,VALID,19.5636,VALID,47,VALID,0,
2003-08-14, 02:15:00,VALID,917.379,VALID,0,VALID,100,VALID,-0.0679233,VALID,19.5698,VALID,47,VALID,0,
2003-08-14, 02:16:00,VALID,917.371,VALID,0,VALID,100,VALID,-0.0679233,VALID,19.5666,VALID,50,VALID,0.0187089,
2003-08-14, 02:17:00,VALID,917.351,VALID,0,VALID,100,VALID,-0.0509425,VALID,19.5728,VALID,50,VALID,0.0382813,
2003-08-14, 02:18:00,VALID,917.328,VALID,0,VALID,100,VALID,-0.0679233,VALID,19.5469,VALID,50,VALID,0,
2003-08-14, 02:19:00,VALID,917.316,VALID,0,VALID,100,VALID,-0.0339617,VALID,19.5537,VALID,50,VALID,0,
2003-08-14, 02:20:00,VALID,917.304,VALID,0,VALID,100,VALID,-0.0509425,VALID,19.5569,VALID,50,VALID,0,
2003-08-14, 02:21:00,VALID,917.293,VALID,0,VALID,100,VALID,-0.0509425,VALID,19.5564,VALID,50,VALID,0,
2003-08-14, 02:22:00,VALID,917.282,VALID,0,VALID,100,VALID,-0.0339617,VALID,19.5631,VALID,50,VALID,0,
2003-08-14, 02:23:00,VALID,917.27,VALID,0,VALID,100,VALID,-0.0169808,VALID,19.5728,VALID,50,VALID,0,
2003-08-14, 02:24:00,VALID,917.267,VALID,0,VALID,100,VALID,-0.0849042,VALID,19.5656,VALID,50,VALID,0,
2003-08-14, 02:25:00,VALID,917.246,VALID,0,VALID,100,VALID,0.0169808,VALID,19.5711,VALID,50,VALID,0,
2003-08-14, 02:26:00,VALID,917.242,VALID,0,VALID,100,VALID,0.0339617,VALID,19.5842,VALID,50,VALID,0,
2003-08-14, 02:27:00,VALID,917.228,VALID,0,VALID,100,VALID,0.0169808,VALID,19.5912,VALID,50,VALID,0,
2003-08-14, 02:28:00,VALID,917.223,VALID,0,VALID,100,VALID,0,VALID,19.5942,VALID,50,VALID,0,
2003-08-14, 02:29:00,VALID,917.22,VALID,0,VALID,100,VALID,0.0169808,VALID,19.5815,VALID,50,VALID,0,
2003-08-14, 02:30:00,VALID,917.217,VALID,0,VALID,100,VALID,0.0169808,VALID,19.5877,VALID,50,VALID,0,
2003-08-14, 02:31:00,VALID,917.228,VALID,0,VALID,100,VALID,0.0169808,VALID,19.6036,VALID,50,VALID,0,
2003-08-14, 02:32:00,VALID,917.226,VALID,0,VALID,100,VALID,0.0509425,VALID,19.6101,VALID,50,VALID,0,
2003-08-14, 02:33:00,VALID,917.231,VALID,0,VALID,100,VALID,0.0679233,VALID,19.62,VALID,50,VALID,0,
2003-08-14, 02:34:00,VALID,917.237,VALID,0,VALID,100,VALID,0.0509425,VALID,19.6123,VALID,50,VALID,0,
2003-08-14, 02:35:00,VALID,917.249,VALID,0,VALID,100,VALID,0,VALID,19.6329,VALID,33,VALID,0.36317,
2003-08-14, 02:36:00,VALID,917.237,VALID,0,VALID,100,VALID,0.0339617,VALID,19.6458,VALID,28,VALID,0.500401,
2003-08-14, 02:37:00,VALID,917.228,VALID,0,VALID,100,VALID,0.0169808,VALID,19.6424,VALID,24,VALID,0.493627,
2003-08-14, 02:38:00,VALID,917.219,VALID,0,VALID,100,VALID,0.0339617,VALID,19.6361,VALID,23,VALID,0.403927,
2003-08-14, 02:39:00,VALID,917.209,VALID,0,VALID,100,VALID,0.0169808,VALID,19.6364,VALID,23,VALID,0.524282,
2003-08-14, 02:40:00,VALID,917.184,VALID,0,VALID,100,VALID,0.0169808,VALID,19.6426,VALID,23,VALID,0.481419,
2003-08-14, 02:41:00,VALID,917.174,VALID,0,VALID,100,VALID,0.0169808,VALID,19.6138,VALID,23,VALID,0.307091,
2003-08-14, 02:42:00,VALID,917.161,VALID,0,VALID,100,VALID,0.0169808,VALID,19.6165,VALID,23,VALID,0.361637,
2003-08-14, 02:43:00,VALID,917.134,VALID,0,VALID,100,VALID,0,VALID,19.6038,VALID,23,VALID,0.384766,
2003-08-14, 02:44:00,VALID,917.099,VALID,0,VALID,100,VALID,0,VALID,19.6043,VALID,23,VALID,0.073117,
2003-08-14, 02:45:00,VALID,917.082,VALID,0,VALID,100,VALID,0,VALID,19.6076,VALID,23,VALID,0,
2003-08-14, 02:46:00,VALID,917.076,VALID,0,VALID,100,VALID,0,VALID,19.5845,VALID,23,VALID,0.0436699,
2003-08-14, 02:47:00,VALID,917.056,VALID,0,VALID,100,VALID,0,VALID,19.5517,VALID,23,VALID,0,
2003-08-14, 02:48:00,VALID,917.03,VALID,0,VALID,100,VALID,0,VALID,19.5425,VALID,23,VALID,0,
2003-08-14, 02:49:00,VALID,917.025,VALID,0,VALID,100,VALID,0,VALID,19.5427,VALID,23,VALID,0,
2003-08-14, 02:50:00,VALID,917.006,VALID,0,VALID,100,VALID,0,VALID,19.5492,VALID,23,VALID,0,
2003-08-14, 02:51:00,VALID,916.976,VALID,0,VALID,100,VALID,0,VALID,19.5524,VALID,23,VALID,0,
2003-08-14, 02:52:00,VALID,916.979,VALID,0,VALID,100,VALID,0,VALID,19.5586,VALID,23,VALID,0,
2003-08-14, 02:53:00,VALID,916.973,VALID,0,VALID,100,VALID,0,VALID,19.5651,VALID,23,VALID,0,
2003-08-14, 02:54:00,VALID,916.963,VALID,0,VALID,100,VALID,0,VALID,19.5557,VALID,23,VALID,0,
2003-08-14, 02:55:00,VALID,916.959,VALID,0,VALID,100,VALID,-0.0169808,VALID,19.5333,VALID,23,VALID,0,
2003-08-14, 02:56:00,VALID,916.968,VALID,0,VALID,100,VALID,0,VALID,19.5199,VALID,23,VALID,0,
2003-08-14, 02:57:00,VALID,916.969,VALID,0,VALID,100,VALID,0,VALID,19.5263,VALID,23,VALID,0,
2003-08-14, 02:58:00,VALID,916.988,VALID,0,VALID,100,VALID,-0.0169808,VALID,19.5564,VALID,23,VALID,0,
2003-08-14, 02:59:00,VALID,916.992,VALID,0,VALID,100,VALID,-0.0339617,VALID,19.5427,VALID,23,VALID,0,
2003-08-14, 03:00:00,VALID,916.997,VALID,0,VALID,100,VALID,-0.0509425,VALID,19.5335,VALID,23,VALID,0,
2003-08-14, 03:01:00,VALID,917,VALID,0,VALID,100,VALID,0,VALID,19.5263,VALID,23,VALID,0,
2003-08-14, 03:02:00,VALID,916.985,VALID,0,VALID,100,VALID,0,VALID,19.533,VALID,23,VALID,0,
2003-08-14, 03:03:00,VALID,916.98,VALID,0,VALID,100,VALID,0,VALID,19.546,VALID,23,VALID,0,
2003-08-14, 03:04:00,VALID,916.954,VALID,0,VALID,100,VALID,0,VALID,19.5559,VALID,23,VALID,0,
2003-08-14, 03:05:00,VALID,916.941,VALID,0,VALID,100,VALID,0,VALID,19.5296,VALID,23,VALID,0,
2003-08-14, 03:06:00,VALID,916.908,VALID,0,VALID,100,VALID,0,VALID,19.5095,VALID,66,VALID,0.0629223,
2003-08-14, 03:07:00,VALID,916.901,VALID,0,VALID,100,VALID,0,VALID,19.5296,VALID,94,VALID,0.205329,
2003-08-14, 03:08:00,VALID,916.89,VALID,0,VALID,100,VALID,0,VALID,19.5365,VALID,117,VALID,0.304482,
2003-08-14, 03:09:00,VALID,916.868,VALID,0,VALID,100,VALID,0.0169808,VALID,19.5231,VALID,125,VALID,0.195313,
2003-08-14, 03:10:00,VALID,916.867,VALID,0,VALID,100,VALID,0,VALID,19.5231,VALID,125,VALID,0.193309,
2003-08-14, 03:11:00,VALID,916.849,VALID,0,VALID,100,VALID,0,VALID,19.5263,VALID,125,VALID,0,
2003-08-14, 03:12:00,VALID,916.825,VALID,0,VALID,100,VALID,0,VALID,19.5201,VALID,125,VALID,0.0967548,
2003-08-14, 03:13:00,VALID,916.81,VALID,0,VALID,100,VALID,0,VALID,19.5201,VALID,125,VALID,0.141047,
2003-08-14, 03:14:00,VALID,916.775,VALID,0,VALID,100,VALID,0,VALID,19.4973,VALID,125,VALID,0.146267,
2003-08-14, 03:15:00,VALID,916.767,VALID,0,VALID,100,VALID,0,VALID,19.4876,VALID,125,VALID,0.107856,
2003-08-14, 03:16:00,VALID,916.758,VALID,0,VALID,100,VALID,0.0169808,VALID,19.4744,VALID,125,VALID,0.138775,
2003-08-14, 03:17:00,VALID,916.757,VALID,0,VALID,100,VALID,0,VALID,19.4618,VALID,125,VALID,0.332137,
2003-08-14, 03:18:00,VALID,916.764,VALID,0,VALID,100,VALID,0,VALID,19.4521,VALID,125,VALID,0.205134,
2003-08-14, 03:19:00,VALID,916.757,VALID,0,VALID,100,VALID,0,VALID,19.4454,VALID,125,VALID,0.216005,
2003-08-14, 03:20:00,VALID,916.757,VALID,0,VALID,100,VALID,0.0339617,VALID,19.4392,VALID,125,VALID,0.222756,
2003-08-14, 03:21:00,VALID,916.742,VALID,0,VALID,100,VALID,-0.0169808,VALID,19.426,VALID,125,VALID,0.0903445,
2003-08-14, 03:22:00,VALID,916.746,VALID,0,VALID,100,VALID,0,VALID,19.423,VALID,124,VALID,0.111178,
2003-08-14, 03:23:00,VALID,916.747,VALID,0,VALID,100,VALID,0,VALID,19.4302,VALID,83,VALID,0.206731,
2003-08-14, 03:24:00,VALID,916.753,VALID,0,VALID,100,VALID,0.0169808,VALID,19.43,VALID,83,VALID,0.0367647,
2003-08-14, 03:25:00,VALID,916.766,VALID,0,VALID,100,VALID,0.0339617,VALID,19.4262,VALID,83,VALID,0,
2003-08-14, 03:26:00,VALID,916.781,VALID,0,VALID,100,VALID,0.0169808,VALID,19.4327,VALID,83,VALID,0,
2003-08-14, 03:27:00,VALID,916.781,VALID,0,VALID,100,VALID,0.0169808,VALID,19.4362,VALID,83,VALID,0,
2003-08-14, 03:28:00,VALID,916.782,VALID,0,VALID,100,VALID,0,VALID,19.4431,VALID,83,VALID,0,
2003-08-14, 03:29:00,VALID,916.774,VALID,0,VALID,100,VALID,-0.0339617,VALID,19.4585,VALID,83,VALID,0.0273438,
2003-08-14, 03:30:00,VALID,916.769,VALID,0,VALID,100,VALID,0,VALID,19.4493,VALID,83,VALID,0,
2003-08-14, 03:31:00,VALID,916.753,VALID,0,VALID,100,VALID,0,VALID,19.462,VALID,83,VALID,0,
2003-08-14, 03:32:00,VALID,916.744,VALID,0,VALID,100,VALID,0.0169808,VALID,19.4523,VALID,83,VALID,0,
2003-08-14, 03:33:00,VALID,916.74,VALID,0,VALID,100,VALID,0,VALID,19.4491,VALID,83,VALID,0,
2003-08-14, 03:34:00,VALID,916.726,VALID,0,VALID,100,VALID,0,VALID,19.4615,VALID,83,VALID,0,
2003-08-14, 03:35:00,VALID,916.713,VALID,0,VALID,100,VALID,0,VALID,19.4784,VALID,83,VALID,0,
2003-08-14, 03:36:00,VALID,916.688,VALID,0,VALID,100,VALID,0,VALID,19.4647,VALID,83,VALID,0,
2003-08-14, 03:37:00,VALID,916.671,VALID,0,VALID,100,VALID,0,VALID,19.4622,VALID,83,VALID,0,
2003-08-14, 03:38:00,VALID,916.658,VALID,0,VALID,100,VALID,0,VALID,19.4354,VALID,83,VALID,0,
2003-08-14, 03:39:00,VALID,916.642,VALID,0,VALID,100,VALID,0,VALID,19.4362,VALID,83,VALID,0,
2003-08-14, 03:40:00,VALID,916.632,VALID,0,VALID,100,VALID,0,VALID,19.4367,VALID,80,VALID,0.179905,
2003-08-14, 03:41:00,VALID,916.629,VALID,0,VALID,100,VALID,-0.0339617,VALID,19.4662,VALID,77,VALID,0.309462,
2003-08-14, 03:42:00,VALID,916.622,VALID,0,VALID,100,VALID,-0.0509425,VALID,19.4722,VALID,76,VALID,0.54338,
2003-08-14, 03:43:00,VALID,916.612,VALID,0,VALID,100,VALID,-0.0339617,VALID,19.4727,VALID,75,VALID,0.336571,
2003-08-14, 03:44:00,VALID,916.604,VALID,0,VALID,100,VALID,-0.0169808,VALID,19.4692,VALID,64,VALID,0.459152,
2003-08-14, 03:45:00,VALID,916.605,VALID,0,VALID,100,VALID,-0.0169808,VALID,19.4727,VALID,63,VALID,0.333615,
2003-08-14, 03:46:00,VALID,916.614,VALID,0,VALID,100,VALID,-0.0509425,VALID,19.4824,VALID,63,VALID,0.083734,
2003-08-14, 03:47:00,VALID,916.611,VALID,0,VALID,100,VALID,-0.0509425,VALID,19.4856,VALID,63,VALID,0,
2003-08-14, 03:48:00,VALID,916.616,VALID,0,VALID,100,VALID,-0.0169808,VALID,19.4916,VALID,63,VALID,0,
2003-08-14, 03:49:00,VALID,916.629,VALID,0,VALID,100,VALID,0,VALID,19.5079,VALID,63,VALID,0.0625,
2003-08-14, 03:50:00,VALID,916.636,VALID,0,VALID,100,VALID,-0.0169808,VALID,19.4945,VALID,63,VALID,0,
2003-08-14, 03:51:00,VALID,916.645,VALID,0,VALID,100,VALID,-0.0509425,VALID,19.5181,VALID,63,VALID,0,
2003-08-14, 03:52:00,VALID,916.66,VALID,0,VALID,100,VALID,-0.0679233,VALID,19.502,VALID,63,VALID,0.00108507,
2003-08-14, 03:53:00,VALID,916.671,VALID,0,VALID,100,VALID,-0.0339617,VALID,19.4789,VALID,60,VALID,0.00758929,